Location: Vancouver
(49.2500°N, 123.1330°W)
Time: 08:54:49
(UTC-07:00)

Cosmos 676 Rocket - Visible Passes

Search period start: 30 June 2016 00:00
Search period end: 10 July 2016 00:00
Orbit: 755 x 784 km, 74.0° (Epoch: 30 June)

Date Brightness Start Highest point End Pass type
(mag) Time Alt. Az. Time Alt. Az. Time Alt. Az.
30 Jun 6.8 00:15:29 10° NNE 00:16:38 11° NE 00:17:46 10° NE visible
30 Jun 4.9 01:55:10 10° NNW 02:00:11 45° ENE 02:05:08 10° SE visible
30 Jun 5.0 03:37:38 10° NW 03:42:04 29° W 03:45:46 13° SSW visible
01 Jul 5.6 01:18:50 10° N 01:23:25 30° NE 01:28:00 10° ESE visible
01 Jul 4.3 03:00:46 10° NNW 03:05:43 46° WSW 03:09:11 18° S visible
02 Jul 6.1 00:42:37 10° N 00:46:35 21° NE 00:50:30 10° E visible
02 Jul 3.9 02:24:04 10° NNW 02:29:16 74° WSW 02:32:42 21° SSE visible
02 Jul 6.0 04:09:11 10° WNW 04:10:22 11° W 04:11:33 10° WSW visible
03 Jul 6.4 00:06:38 10° N 00:09:37 15° NE 00:12:35 10° ENE visible
03 Jul 4.1 01:47:30 10° NNW 01:52:43 72° ENE 01:56:17 20° SSE visible
03 Jul 5.6 03:30:47 10° NW 03:34:13 18° W 03:36:32 14° SW visible
03 Jul 6.7 23:31:20 10° NNE 23:32:32 11° NE 23:33:46 10° NE visible
04 Jul 4.8 01:11:04 10° NNW 01:16:05 46° ENE 01:19:55 16° SE visible
04 Jul 5.0 02:53:33 10° NW 02:57:57 29° W 03:00:11 21° SW visible
05 Jul 5.5 00:34:43 10° N 00:39:20 31° NE 00:43:36 11° ESE visible
05 Jul 4.4 02:16:40 10° NW 02:21:36 45° WSW 02:23:53 28° SSW visible
05 Jul 6.0 23:58:30 10° N 00:02:29 21° NE 00:06:25 10° E visible
06 Jul 3.9 01:39:58 10° NNW 01:45:09 73° WSW 01:47:37 31° S visible
06 Jul 6.1 03:25:13 10° W 03:26:15 11° W 03:27:18 10° WSW visible
06 Jul 6.3 23:22:31 10° N 23:25:31 15° NE 23:28:32 10° ENE visible
07 Jul 4.1 01:03:24 10° NNW 01:08:37 72° ENE 01:11:23 28° SE visible
07 Jul 5.6 02:46:42 10° NW 02:50:05 18° W 02:51:39 16° WSW visible
07 Jul 6.5 22:47:10 10° NNE 22:48:27 11° NE 22:49:45 10° NE visible
08 Jul 4.7 00:26:57 10° NNW 00:31:58 46° ENE 00:35:12 21° SE visible
08 Jul 5.1 02:09:27 10° NW 02:13:50 28° W 02:15:28 24° SW visible
08 Jul 5.3 23:50:37 10° N 23:55:14 31° NE 23:59:03 14° ESE visible
09 Jul 4.5 01:32:34 10° NW 01:37:29 45° WSW 01:39:19 32° SSW visible
09 Jul 5.8 23:14:24 10° N 23:18:23 22° NE 23:22:21 10° E visible
